Home   Weather   Managua   Past weeks

Flag for Nicaragua Past Weather in Managua, Nicaragua — Yesterday and Last 2 Weeks

Now
77 °F

Thunderstorms. Passing clouds.


Feels Like: 78 °F
Forecast: 75 / 90 °F
Wind: 9 mph from East

Location: Managua A. C. Sandino

Current Time: Aug 31, 2016 at 12:31:28 AM

Latest Report: Aug 31, 2016 at 12:00 AM


Visibility: 6 mi

Pressure: 29.86 "Hg

Humidity: 94%

Dew Point: 75 °F

Location of ManaguaLocation

Past Weather in Managua — Graph

°F

Managua Temperature Yesterday

Maximum temperature yesterday: 91 °F (at 1:00 PM)
Minimum temperature yesterday: 75 °F (at 4:00 AM)
Average temperature yesterday: 82 °F

High & Low Weather Summary for the Past Weeks

 TemperatureHumidityPressure
High95 °F (Aug 20, 3:00 PM)94% (Aug 16, 1:00 AM)29.92 "Hg (Aug 16, 1:00 AM)
Low73 °F (Aug 22, 3:00 AM)41% (Aug 20, 3:00 PM)29.56 "Hg (Aug 19, 8:00 PM)
Average83 °F73%29.83 "Hg
* Reported Aug 15 11:00 PM — Aug 30 11:00 PM, Managua, Weather by CustomWeather, © 2016

Note: Actual official high and low records may vary slightly from our data, if they occured in-between our weather recording intervals... More about our weather records

Advertising

Managua Weather History for the Previous 24 Hours

Scroll right to see more
 ConditionsComfort  
Time TempWeatherWind HumidityBarometerVisibility
11:00 PM
Tue, Aug 30
79 °FThundershowers. Passing clouds.5 mph79%29.89 "Hg6 mi
10:00 PM79 °FPassing clouds.No wind84%29.89 "HgN/A
9:00 PM81 °FThunderstorms. Passing clouds.5 mph79%29.83 "HgN/A
8:00 PM82 °FPassing clouds.5 mph74%29.80 "HgN/A
7:00 PM82 °FPassing clouds.5 mph74%29.80 "HgN/A
6:00 PM84 °FPassing clouds.5 mph70%29.77 "Hg6 mi
5:00 PM86 °FScattered clouds.5 mph66%29.74 "Hg6 mi
4:00 PM86 °FScattered clouds.5 mph66%29.74 "HgN/A
3:00 PM90 °FScattered clouds.12 mph59%29.77 "HgN/A
2:00 PM90 °FScattered clouds.7 mph59%29.77 "HgN/A
1:00 PM91 °FScattered clouds.5 mph56%29.77 "HgN/A
12:00 PM86 °FScattered clouds.5 mph70%29.83 "HgN/A
11:00 AM86 °FScattered clouds.7 mph70%29.86 "HgN/A
10:00 AM84 °FScattered clouds.7 mph79%29.86 "HgN/A
9:00 AM82 °FScattered clouds.5 mph79%29.86 "HgN/A
8:00 AM81 °FScattered clouds.No wind84%29.86 "HgN/A
7:00 AM79 °FPartly sunny.5 mph89%29.83 "HgN/A
6:00 AM77 °FScattered clouds.No wind94%29.80 "HgN/A
5:00 AM77 °FPassing clouds.No wind94%29.80 "HgN/A
4:00 AM75 °FPassing clouds.No wind94%29.80 "HgN/A
1:00 AM77 °FThunderstorms. Passing clouds.No wind89%29.86 "Hg6 mi
12:00 AM77 °FThundershowers. Passing clouds.5 mph89%29.86 "Hg6 mi
Weather by CustomWeather, © 2016

See weather overviewHow to use our weather pages